| time (UTC) | temp F | wind direction | speed MPH | gust MPH | rain 1hr in | rain 24hr in | rain mn in | humidity % | barometer mb |
| 20260831121608 | 47 | 202 | 0.0 | 0.0 | 0.00 | 0.00 | 0.00 | 90 | 1014.9 |
| 20260831120111 | 48 | 202 | 0.0 | 0.0 | 0.00 | 0.00 | 0.00 | 90 | 1014.9 |
| 20260831113035 | 48 | 162 | 0.0 | 3.0 | 0.00 | 0.00 | 0.00 | 91 | 1015.0 |
| 20260831104536 | 48 | 202 | 0.0 | 0.0 | 0.00 | 0.00 | 0.00 | 90 | 1015.0 |
| 20260831103032 | 49 | 202 | 0.0 | 0.0 | 0.00 | 0.00 | 0.00 | 89 | 1015.0 |
| 20260831093035 | 50 | 202 | 0.0 | 1.0 | 0.00 | 0.00 | 0.00 | 88 | 1015.4 |
| 20260831091532 | 49 | 202 | 0.0 | 1.0 | 0.00 | 0.00 | 0.00 | 87 | 1015.4 |
| 20260831090035 | 50 | 202 | 0.0 | 0.0 | 0.00 | 0.00 | 0.00 | 86 | 1015.5 |
| 20260831084534 | 50 | 202 | 0.0 | 0.0 | 0.00 | 0.00 | 0.00 | 85 | 1015.5 |
| 20260831083032 | 51 | 202 | 0.0 | 0.0 | 0.00 | 0.00 | 0.00 | 84 | 1015.6 |
| 20260831081536 | 52 | 202 | 0.0 | 0.0 | 0.00 | 0.00 | 0.00 | 82 | 1015.8 |
| 20260831080143 | 53 | 202 | 0.0 | 1.0 | 0.00 | 0.00 | 0.00 | 82 | 1015.8 |
| 20260831074536 | 54 | 160 | 0.0 | 2.0 | 0.00 | 0.00 | 0.00 | 82 | 1015.8 |
| 20260831073059 | 53 | 157 | 0.0 | 1.0 | 0.00 | 0.00 | 0.00 | 81 | 1015.9 |
| 20260831070040 | 54 | 157 | 0.0 | 1.0 | 0.00 | 0.00 | 0.00 | 80 | 1015.9 |
| 20260831063116 | 55 | 202 | 0.0 | 2.0 | 0.00 | 0.00 | 0.00 | 80 | 1016.0 |
| 20260831060032 | 54 | 202 | 0.0 | 1.0 | 0.00 | 0.00 | 0.00 | 81 | 1016.1 |
| 20260831054535 | 56 | 202 | 0.0 | 0.0 | 0.00 | 0.00 | 0.00 | 78 | 1016.2 |
| 20260831051533 | 57 | 202 | 0.0 | 0.0 | 0.00 | 0.00 | 0.00 | 78 | 1016.2 |
| 20260831050109 | 57 | 202 | 0.0 | 2.0 | 0.00 | 0.00 | 0.00 | 76 | 1016.2 |
| 20260831044535 | 58 | 202 | 0.0 | 2.0 | 0.00 | 0.00 | 0.00 | 73 | 1016.2 |
| 20260831043030 | 60 | 214 | 0.0 | 2.0 | 0.00 | 0.00 | 0.00 | 69 | 1016.1 |
| 20260831034530 | 61 | 225 | 0.0 | 1.0 | 0.00 | 0.00 | 0.00 | 66 | 1015.9 |
| 20260831031536 | 64 | 206 | 0.0 | 4.0 | 0.00 | 0.00 | 0.00 | 60 | 1015.7 |
| 20260831024531 | 66 | 198 | 0.0 | 2.0 | 0.00 | 0.00 | 0.00 | 56 | 1015.7 |
| 20260831021608 | 69 | 225 | 0.0 | 6.0 | 0.00 | 0.00 | 0.00 | 49 | 1015.5 |
| 20260831020143 | 70 | 235 | 0.0 | 6.0 | 0.00 | 0.00 | 0.00 | 46 | 1015.4 |
| 20260831014529 | 72 | 258 | 0.0 | 6.0 | 0.00 | 0.00 | 0.00 | 44 | 1015.4 |
| 20260831013105 | 73 | 236 | 1.0 | 9.0 | 0.00 | 0.00 | 0.00 | 43 | 1015.5 |
| 20260831011529 | 73 | 250 | 0.0 | 7.0 | 0.00 | 0.00 | 0.00 | 41 | 1015.5 |
| 20260831003043 | 75 | 252 | 1.0 | 10.0 | 0.00 | 0.00 | 0.00 | 39 | 1015.7 |
| 20260831000037 | 75 | 245 | 1.0 | 10.0 | 0.00 | 0.00 | 0.00 | 40 | 1015.9 |
| 20260830233030 | 75 | 270 | 1.0 | 9.0 | 0.00 | 0.00 | 0.00 | 39 | 1016.1 |
| 20260830231533 | 75 | 265 | 2.0 | 11.0 | 0.00 | 0.00 | 0.00 | 39 | 1016.2 |
| 20260830230035 | 74 | 279 | 2.0 | 9.0 | 0.00 | 0.00 | 0.00 | 39 | 1016.4 |
| 20260830224537 | 74 | 285 | 2.0 | 11.0 | 0.00 | 0.00 | 0.00 | 39 | 1016.7 |
| 20260830223142 | 74 | 277 | 1.0 | 12.0 | 0.00 | 0.00 | 0.00 | 38 | 1016.9 |
| 20260830221531 | 74 | 281 | 2.0 | 11.0 | 0.00 | 0.00 | 0.00 | 39 | 1017.2 |
| 20260830220032 | 74 | 275 | 2.0 | 9.0 | 0.00 | 0.00 | 0.00 | 41 | 1017.4 |
| 20260830214534 | 73 | 275 | 2.0 | 11.0 | 0.00 | 0.00 | 0.00 | 41 | 1017.6 |
| 20260830213036 | 73 | 261 | 2.0 | 9.0 | 0.00 | 0.00 | 0.00 | 42 | 1017.7 |
| 20260830211535 | 73 | 269 | 2.0 | 12.0 | 0.00 | 0.00 | 0.00 | 42 | 1017.8 |
| 20260830210035 | 74 | 237 | 2.0 | 10.0 | 0.00 | 0.00 | 0.00 | 42 | 1018.0 |
| 20260830204537 | 74 | 280 | 2.0 | 9.0 | 0.00 | 0.00 | 0.00 | 42 | 1018.2 |
| 20260830203036 | 74 | 266 | 2.0 | 10.0 | 0.00 | 0.00 | 0.00 | 42 | 1018.4 |
| 20260830201531 | 73 | 282 | 2.0 | 8.0 | 0.00 | 0.00 | 0.00 | 43 | 1018.6 |
| 20260830193042 | 72 | 278 | 2.0 | 9.0 | 0.00 | 0.00 | 0.00 | 44 | 1019.1 |
| 20260830191534 | 71 | 267 | 1.0 | 8.0 | 0.00 | 0.00 | 0.00 | 46 | 1019.4 |
| 20260830184650 | 70 | 263 | 2.0 | 7.0 | 0.00 | 0.00 | 0.00 | 48 | 1019.7 |
| 20260830183036 | 69 | 277 | 2.0 | 9.0 | 0.00 | 0.00 | 0.00 | 49 | 1019.8 |
| 20260830181549 | 68 | 269 | 1.0 | 9.0 | 0.00 | 0.00 | 0.00 | 50 | 1019.9 |
| 20260830174611 | 66 | 283 | 1.0 | 9.0 | 0.00 | 0.00 | 0.00 | 54 | 1020.0 |
| 20260830173030 | 66 | 284 | 1.0 | 9.0 | 0.00 | 0.00 | 0.00 | 54 | 1020.1 |
| 20260830171534 | 65 | 282 | 1.0 | 8.0 | 0.00 | 0.00 | 0.00 | 56 | 1020.2 |
| 20260830170033 | 65 | 292 | 1.0 | 7.0 | 0.00 | 0.00 | 0.00 | 59 | 1020.3 |
| 20260830161535 | 61 | 278 | 1.0 | 11.0 | 0.00 | 0.00 | 0.00 | 70 | 1020.8 |
| 20260830160109 | 60 | 249 | 2.0 | 8.0 | 0.00 | 0.00 | 0.00 | 74 | 1021.0 |
| 20260830154540 | 59 | 292 | 0.0 | 8.0 | 0.00 | 0.00 | 0.00 | 78 | 1021.1 |
| 20260830154534 | 56 | 243 | 0.0 | 4.0 | 0.00 | 0.00 | 0.00 | 85 | 1021.1 |
| 20260830151532 | 52 | 186 | 0.0 | 4.0 | 0.00 | 0.00 | 0.00 | 87 | 1021.1 |
| 20260830150029 | 50 | 214 | 1.0 | 4.0 | 0.00 | 0.00 | 0.00 | 89 | 1021.2 |
| 20260830144534 | 48 | 157 | 0.0 | 2.0 | 0.00 | 0.00 | 0.00 | 91 | 1021.2 |
| 20260830143031 | 46 | 196 | 0.0 | 2.0 | 0.00 | 0.00 | 0.00 | 91 | 1021.1 |
| 20260830141535 | 47 | 200 | 0.0 | 2.0 | 0.00 | 0.00 | 0.00 | 91 | 1020.9 |
| 20260830140034 | 47 | 207 | 0.0 | 3.0 | 0.00 | 0.00 | 0.00 | 91 | 1020.7 |
| 20260830134534 | 47 | 211 | 0.0 | 3.0 | 0.00 | 0.00 | 0.00 | 91 | 1020.6 |
| 20260830133033 | 47 | 169 | 0.0 | 5.0 | 0.00 | 0.00 | 0.00 | 91 | 1020.6 |
| 20260830131530 | 47 | 191 | 0.0 | 3.0 | 0.00 | 0.00 | 0.00 | 91 | 1020.3 |
| 20260830130033 | 47 | 167 | 0.0 | 3.0 | 0.00 | 0.00 | 0.00 | 91 | 1020.2 |
| 20260830124533 | 47 | 184 | 0.0 | 2.0 | 0.00 | 0.00 | 0.00 | 91 | 1020.2 |